EHI
0 0 0 0 0 0 0 0 0 0 0 0 0 0 0 0 0 0 0 0 0 0 0 1 2 3 2 1 0 1 2 3 3 3 3 1 0 0 0 0 0 0 0 0
0 0 0 0 0 0 0 0 0 0 0 0 0 0 0 0 0 0 0 0 0 0 0 1 2 3 3 1 0 1 2 3 3 3 3 2 1 0 0 0 0 0 0 0
0 0 0 0 0 0 0 0 0 0 0 0 0 0 0 0 0 0 0 0 0 0 0 0 1 2 2 1 0 1 2 3 3 3 3 3 1 1 1 1 2 2 2 1
0 0 0 0 0 0 0 0 0 0 0 0 0 0 0 0 0 0 0 0 0 0 0 0 0 1 1 1 0 1 2 3 3 3 3 3 3 2 2 2 2 3 3 3
0 0 0 0 0 0 0 0 0 0 0 0 0 0 0 0 0 0 0 0 0 0 0 0 1 1 1 1 1 0 1 1 2 3 3 3 3 3 3 2 1 2 3 3
0 0 0 0 0 0 0 0 0 0 0 0 0 0 0 0 0 0 0 0 0 0 0 1 2 2 2 2 1 0 0 0 1 2 3 3 3 3 3 2 1 1 1 2
0 0 0 0 0 0 0 0 0 0 0 0 0 0 0 0 0 0 0 0 0 0 0 2 3 3 3 2 1 0 0 0 0 1 2 2 2 2 2 2 1 0 0 1
0 0 0 0 0 0 0 0 0 0 0 0 0 0 0 0 0 0 0 0 0 0 0 1 2 2 2 1 0 0 0 0 0 0 1 1 1 1 1 1 0 0 0 0
0 0 0 0 0 0 0 0 0 0 0 0 0 0 0 0 0 0 0 0 0 0 0 0 1 1 1 0 0 0 0 0 0 0 0 0 0 0 0 0 0 0 0 0
0 0 0 0 0 0 0 0 0 0 0 0 0 0 0 0 1 1 1 1 0 0 0 0 0 0 0 0 0 0 0 0 0 0 0 0 0 0 0 0 0 0 0 0
0 0 0 0 0 0 0 0 0 0 0 0 0 0 0 0 1 2 1 1 0 0 0 1 0 0 0 0 0 0 0 0 0 0 0 0 0 0 0 0 0 0 0 0
0 0 0 0 0 0 0 0 0 0 0 0 0 0 0 0 1 2 2 1 0 0 0 0 0 0 0 0 0 0 0 0 0 0 0 0 0 0 0 0 0 0 0 0
0 0 0 0 0 0 0 0 0 0 0 0 0 0 0 0 0 1 1 1 0 0 0 0 0 0 0 0 0 0 0 0 0 0 0 0 0 0 0 0 0 0 0 0
0 0 0 0 0 0 0 0 0 0 0 0 0 0 0 0 0 0 0 0 0 0 0 0 0 0 0 0 0 0 0 0 0 0 0 0 0 0 0 0 0 0 0 0
0 0 0 0 0 0 0 0 0 0 0 0 0 0 0 0 0 0 0 0 0 0 0 0 0 0 0 0 0 0 0 0 0 0 0 0 0 0 0 0 0 0 0 0
0 0 0 0 0 0 0 0 0 0 0 0 0 0 0 0 0 0 0 0 0 0 0 0 0 0 0 0 0 0 0 0 0 0 0 0 0 0 0 0 0 0 0 0
0 0 0 0 0 0 0 0 0 0 0 0 0 0 0 0 0 0 0 0 0 0 0 0 0 0 0 0 0 0 0 0 0 0 0 0 0 0 0 0 0 0 0 0
0 0 0 0 0 0 0 0 0 0 0 0 0 0 0 0 0 0 0 0 0 0 0 0 0 0 0 0 0 0 0 0 0 0 0 0 0 0 0 0 0 0 0 0
0 0 0 0 0 0 0 0 0 0 0 0 0 0 0 0 0 0 0 0 0 0 0 0 0 0 0 0 0 0 0 0 0 0 0 0 0 0 0 0 0 0 0 0
0 0 0 0 0 0 0 0 0 0 0 0 0 0 0 0 0 0 0 0 0 0 0 0 0 0 0 0 0 0 0 0 0 0 0 0 0 0 0 0 0 0 0 0
0 0 0 0 0 0 0 0 0 0 0 0 0 0 0 0 0 0 0 0 0 0 0 0 0 0 0 0 0 0 0 0 0 0 0 0 0 0 0 0 0 0 0 0
0 0 0 0 0 0 0 0 0 0 0 0 0 0 0 0 0 0 0 0 0 0 0 0 0 0 0 0 0 0 0 0 0 0 0 0 0 0 0 0 0 0 0 0
0 0 0 0 0 0 0 0 0 0 0 0 0 0 0 0 0 0 0 0 0 0 0 0 0 0 0 0 0 0 0 0 0 0 0 0 0 0 0 0 0 0 0 0
0 0 0 0 0 0 0 0 0 0 0 0 0 0 0 0 0 0 0 0 0 0 0 0 0 0 0 0 0 0 0 0 0 0 0 0 0 0 0 0 0 0 0 0
0 0 0 0 0 0 0 0 0 0 0 0 0 0 0 0 0 0 0 0 0 0 0 0 0 0 0 0 0 0 0 0 0 0 0 0 0 0 0 0 0 0 0 0
0 0 0 0 0 0 0 0 0 0 0 0 0 0 0 0 0 0 0 0 0 0 0 0 0 0 0 0 0 0 0 0 0 0 0 0 0 0 0 0 0 0 0 0
Wind_Speed
1 2 3 6 6 5 3 3 3 4 4 4 5 5 5 6 5 5 6 6 6 7 6 5 6 6 7 6 6 5 5 4 4 3 2 2 1 1 1 1 2 3 3 4
3 3 8 6 4 3 3 2 2 2 1 3 3 4 5 7 8 8 9 8 8 6 4 4 5 5 6 6 6 5 5 5 4 3 2 2 2 1 1 1 2 2 3 3
5 7 5 4 4 4 4 4 4 3 1 1 2 2 2 3 4 4 6 8 8 10 8 7 6 6 6 6 7 7 6 5 4 4 3 3 3 2 2 2 1 1 2 2
4 6 4 3 4 4 4 4 4 3 1 3 2 2 5 4 4 5 5 6 7 8 8 8 7 7 7 7 6 6 6 5 4 5 5 5 3 2 2 1 1 1 1 2
4 2 2 3 5 3 4 3 2 2 2 2 1 2 6 2 5 7 6 6 7 8 9 8 8 8 7 6 6 6 5 4 4 4 5 5 3 2 1 1 1 1 1 1
5 3 3 4 3 2 2 2 4 4 3 2 5 4 5 5 8 7 6 7 7 7 8 7 6 6 5 5 5 6 6 4 4 5 5 5 5 3 2 1 1 0 0 0
4 4 3 1 1 3 4 5 3 3 2 5 3 4 6 6 6 8 9 8 7 7 8 7 6 6 6 5 5 5 6 5 4 5 4 4 5 5 4 3 2 1 1 0
1 5 4 2 4 3 3 7 6 4 4 4 1 4 6 4 4 5 6 7 7 6 7 7 8 7 7 6 6 6 5 5 4 4 4 4 4 3 2 3 3 2 2 2
3 5 4 3 3 5 3 3 6 5 1 1 3 2 3 1 2 4 5 6 7 6 7 7 6 6 6 6 6 6 6 5 4 4 3 3 3 3 3 3 2 2 1 1
4 3 5 3 1 1 5 5 4 3 2 2 4 3 4 4 4 4 5 6 5 5 5 6 6 6 5 5 5 5 6 5 4 3 3 3 2 2 2 2 2 2 1 1
2 3 3 1 3 3 1 2 4 3 4 4 3 6 5 7 7 7 7 7 6 6 6 6 5 5 5 4 4 4 4 4 3 2 2 2 2 2 2 2 2 2 1 1
2 4 2 5 5 4 4 5 6 5 3 4 3 7 4 4 5 6 6 5 5 5 5 5 5 5 5 4 4 4 4 3 3 3 3 3 3 2 2 1 1 1 1 1
3 4 1 5 5 3 0 2 3 5 4 4 4 7 3 1 2 3 6 5 4 4 4 4 4 4 4 4 4 4 4 4 3 3 4 3 3 2 2 1 1 1 1 0
5 4 5 7 6 3 3 4 3 4 4 5 7 7 4 2 2 3 4 6 5 5 5 5 4 3 3 4 4 4 3 3 4 4 4 3 2 2 1 1 1 1 1 1
4 3 4 6 5 4 5 6 5 6 8 8 8 7 7 7 7 6 5 5 5 4 4 5 5 4 4 4 3 3 3 3 4 4 4 3 1 1 2 1 1 1 1 1
2 2 1 3 4 3 4 6 6 6 6 6 5 7 5 3 3 4 5 6 6 5 5 5 5 5 5 5 4 4 3 3 4 5 3 2 2 2 1 1 1 1 1 1
1 3 2 3 4 4 6 7 6 5 4 6 8 8 3 3 5 7 7 6 7 6 5 5 5 5 5 5 5 5 4 4 4 4 3 2 2 2 1 1 1 1 1 1
4 3 3 2 1 6 7 4 4 4 3 3 3 3 5 5 5 5 6 7 7 6 6 6 5 5 4 4 5 5 4 4 4 3 3 2 2 1 1 1 1 0 0 1
7 6 3 3 3 6 6 3 2 3 3 2 1 1 1 2 3 1 2 4 6 6 6 6 5 5 5 5 5 5 4 4 4 3 2 2 2 2 1 1 0 0 0 0
4 4 4 3 3 6 6 4 2 2 3 3 0 2 1 4 2 4 3 3 4 4 4 5 5 5 5 5 5 6 4 4 3 3 2 1 2 2 1 1 1 0 0 0
1 1 4 4 5 7 6 4 2 2 6 3 1 2 3 4 5 4 3 3 4 4 4 5 6 5 5 5 6 6 4 3 3 2 2 2 1 1 1 1 0 0 1 1
4 3 4 4 4 7 4 2 3 5 2 1 1 2 2 1 0 2 3 4 4 4 4 5 5 4 3 5 6 5 3 3 3 3 3 2 1 1 2 1 0 0 1 1
3 5 5 6 7 4 2 3 3 3 2 1 1 1 2 2 1 2 2 4 4 4 5 5 6 5 3 3 5 5 3 3 4 3 2 1 1 1 1 1 1 0 0 0
4 1 1 2 4 3 2 1 1 1 1 1 2 2 3 2 3 3 3 3 3 2 4 5 6 5 3 2 3 3 3 3 4 3 2 1 1 0 1 1 1 0 0 0
5 1 1 4 4 3 3 3 3 1 1 1 1 1 3 5 4 4 3 3 3 2 3 4 5 5 4 3 3 2 3 4 4 3 2 1 1 1 0 0 0 1 1 1
5 6 5 7 7 5 6 5 3 2 2 3 3 1 2 4 5 4 4 3 3 3 3 4 4 4 4 3 2 2 3 4 4 2 1 1 1 0 0 0 2 2 1 2
Wind_Direction
355 87 224 230 212 209 200 203 231 236 211 159 188 212 212 197 180 174 179 190 190 194 194 167 154 148 141 137 138 139 135 137 132 122 120 110 101 86 69 83 94 102 108 116
29 253 239 234 233 221 222 224 252 285 213 164 191 226 222 198 195 187 182 186 189 186 174 163 149 145 147 150 147 144 147 147 148 150 153 147 142 137 117 77 74 90 109 123
203 244 251 238 234 221 233 207 210 217 323 9 126 321 272 242 207 195 186 184 181 176 175 170 158 154 150 153 158 156 155 148 148 138 112 90 65 48 41 42 44 53 111 119
239 255 262 257 241 200 239 226 198 192 138 265 167 240 271 233 211 209 196 180 179 174 171 170 162 158 162 166 160 155 152 148 148 139 133 134 132 144 194 187 165 74 107 123
267 269 252 244 244 213 223 218 202 202 180 270 248 175 273 227 213 221 207 187 177 174 170 172 170 169 167 163 157 153 148 148 146 141 142 139 134 155 158 111 94 63 44 90
249 257 225 232 250 224 196 55 26 47 78 273 235 180 259 222 209 207 202 188 174 167 167 169 169 157 157 154 150 147 143 148 151 142 144 147 150 153 138 129 142 138 4 4
305 290 268 237 313 345 78 85 33 355 3 252 234 170 243 235 203 189 184 183 177 167 165 166 159 158 157 151 153 151 146 151 152 145 147 153 158 158 160 164 170 164 172 217
239 286 267 215 189 198 184 144 160 196 221 276 303 206 247 247 201 170 159 160 160 165 167 170 170 167 162 159 156 151 150 153 157 157 165 161 158 160 168 164 158 176 191 202
190 257 281 242 204 155 153 181 174 149 204 265 277 273 304 10 108 139 146 149 165 178 176 169 165 163 163 163 162 159 156 153 160 162 157 160 170 165 166 163 153 167 190 196
168 238 276 271 53 221 163 158 100 121 173 248 275 248 234 221 191 167 162 166 172 172 174 166 165 161 163 164 159 156 160 165 163 155 156 161 171 166 159 148 157 171 194 184
129 176 290 320 186 210 151 140 122 136 159 164 244 266 232 203 190 178 179 174 173 171 169 167 163 158 151 146 145 144 150 149 147 150 147 143 153 146 141 156 180 187 187 166
136 125 248 260 254 211 179 179 150 160 211 172 186 265 287 199 183 168 167 166 163 163 160 156 152 149 144 143 150 152 151 147 153 148 136 129 124 118 116 133 180 187 181 182
126 110 51 336 334 344 215 202 165 148 140 169 185 256 307 88 143 160 156 153 149 142 140 140 135 143 152 153 156 155 152 154 149 133 122 115 116 117 118 132 133 132 136 73
119 132 172 202 224 242 257 262 206 145 173 211 217 232 269 261 190 177 164 159 150 145 148 149 147 149 152 153 156 152 151 151 138 125 119 115 123 132 134 118 114 112 112 98
102 165 211 236 247 235 241 252 235 206 201 201 227 223 231 222 209 195 184 165 151 146 146 156 154 156 153 148 143 142 146 142 129 122 121 130 136 115 100 82 82 100 103 101
73 174 234 281 272 259 261 253 238 232 219 216 219 243 239 219 189 176 179 170 167 172 167 169 159 153 156 155 150 142 138 136 126 123 127 128 114 93 82 79 77 80 73 49
167 145 147 261 294 318 268 239 221 218 219 200 219 235 208 190 191 187 185 180 177 180 170 167 167 164 163 161 153 150 150 132 122 126 130 125 118 105 81 60 66 84 68 57
170 149 157 213 258 239 248 254 208 202 247 233 215 209 187 197 206 196 184 178 179 177 173 172 166 158 153 146 139 136 132 130 130 128 128 124 123 121 79 64 58 16 95 104
175 159 158 166 220 265 287 282 203 181 265 310 213 204 188 136 81 327 222 182 180 179 176 172 166 157 144 140 140 130 123 121 120 127 140 148 147 135 108 94 59 334 73 34
144 141 146 163 195 234 252 283 299 117 259 305 146 161 143 101 129 246 232 185 169 164 158 151 144 132 133 138 133 128 127 128 142 158 158 148 145 141 146 165 179 298 217 260
120 149 178 192 218 253 264 289 51 172 239 265 207 169 160 181 208 220 188 168 155 150 147 138 135 135 144 141 132 130 133 157 173 156 131 105 115 135 143 146 141 81 39 26
189 186 198 175 204 252 272 87 158 219 239 227 214 186 169 195 150 147 155 149 140 134 134 133 130 131 133 136 134 134 157 172 139 126 119 114 104 108 101 109 75 76 89 51
202 197 196 193 210 237 232 188 208 169 157 216 195 208 147 117 134 150 142 141 140 143 144 137 132 124 119 134 140 146 166 142 127 119 120 122 105 90 113 128 129 60 84 118
278 263 160 248 261 253 259 244 235 201 184 204 179 154 142 151 150 145 145 140 130 126 140 136 130 129 136 139 140 154 153 140 131 131 140 135 121 74 33 71 116 161 214 225
240 249 228 258 268 290 278 244 223 225 155 136 156 167 165 152 154 161 158 164 161 149 151 143 140 143 151 144 137 144 141 135 134 139 142 142 154 169 162 337 243 226 236 216
215 200 203 234 232 219 245 246 224 200 210 192 165 157 171 162 164 165 167 169 165 161 154 147 146 148 152 145 151 157 151 146 141 140 151 166 173 164 147 22 346 335 325 323